Regional Weather Roundup
Issued by NWS

Home | Current Version | Previous Version | Graphics & Text | Print | Product List | Glossary Off
Versions: 1 2 3 4 5 6 7 8 9 10 11 12 13 14 15 16 17 18 19 20 21 22 23 24 25 26 27 28 29 30 31 32 33 34 35 36 37 38 39 40 41 42 43 44 45 46 47 48 49 50

000
ASUS43 KTOP 300008
RWRKS

WEATHER ROUNDUP FOR KANSAS
NATIONAL WEATHER SERVICE GOODLAND KS
700 PM CDT SAT APR 29 2017

NOTE:  "FAIR" INDICATES FEW OR NO CLOUDS BELOW 12,000 FEET WITH NO
SIGNIFICANT WEATHER AND/OR OBSTRUCTIONS TO VISIBILITY.

KSZ001>006-013>018-027>032-041>047-300100-
NORTHWEST KANSAS

CITY           SKY/WX    TMP DP  RH WIND       PRES   REMARKS
GOODLAND       LGT SNOW  34  32  92 N18G28    30.02S FOG     WCI  23
6HR MIN TEMP:  34; 6HR MAX TEMP:  36; 6HR PCP:  0.01;

HAYS           LGT RAIN  39  38  96 N24G35    29.90S FOG     WCI  28
HILL CITY      LGT RAIN  39  37  92 N28G36    29.96F FOG     WCI  28
6HR MIN TEMP:  39; 6HR MAX TEMP:  40; 6HR PCP:  0.14;

RUSSELL        LGT RAIN  40  39  97 N24G37    29.87R FOG     WCI  29
6HR MIN TEMP:  40; 6HR MAX TEMP:  42; 6HR PCP:  0.21;

$$

KSZ061>065-074>080-084>089-300100-
SOUTHWEST KANSAS

CITY           SKY/WX    TMP DP  RH WIND       PRES   REMARKS
DODGE CITY     LGT RAIN  38  37  97 N30G40    29.82S FOG     WCI  26
6HR MIN TEMP:  38; 6HR MAX TEMP:  40; 6HR PCP:  0.34;

ELKHART          N/A    N/A N/A N/A MISG        N/A
GARDEN CITY    DRIZZLE   34  32  92 N31G38    29.86S WCI  20
6HR MIN TEMP:  34; 6HR MAX TEMP:  35; 6HR PCP:  0.08;

GREAT BEND     LGT RAIN  41  40  96 N25G31    29.84S FOG
LIBERAL        LGT RAIN  35  34  96 N20       29.90R FOG     WCI  24
PRATT          LGT RAIN  40  39  97 N20G26    29.77F WCI  31
6HR MIN TEMP:  40; 6HR MAX TEMP:  41; 6HR PCP:  0.21;

$$

KSZ066>073-081>083-090>101-300100-
SOUTHEAST KANSAS

CITY           SKY/WX    TMP DP  RH WIND       PRES   REMARKS
CHANUTE        TSTM      55  53  93 N14       29.72S
6HR MIN TEMP:  51; 6HR MAX TEMP:  56; 6HR PCP:  0.76;

COFFEYVILLE    LGT RAIN  56  55  97 N15       29.62F
6HR MIN TEMP:  54; 6HR MAX TEMP:  58; 6HR PCP:  0.69;

HUTCHINSON     CLOUDY    46  43  89 NE15G32   29.76S FOG
6HR MIN TEMP:  44; 6HR MAX TEMP:  46; 6HR PCP:  0.11;

MEDICINE LODGE   N/A    N/A N/A N/A N20G29    29.73R
NEWTON         LGT RAIN  45  44  97 N17G28    29.74F FOG
PARSONS        LGT RAIN  57  55  93 N9        29.68R
6HR MIN TEMP:  54; 6HR MAX TEMP:  57; 6HR PCP:  0.85;

WICHITA INTL   CLOUDY    47  46  97 N17G28    29.71F FOG
6HR MIN TEMP:  47; 6HR MAX TEMP:  48; 6HR PCP:  0.02;

WICHITA JABRA  CLOUDY    47  45  93 N17G26    29.71F
6HR MIN TEMP:  46; 6HR MAX TEMP:  48; 6HR PCP: TRACE;

WICHITA MCCONL CLOUDY    47  45  91 NE23G30   29.70F
WINFIELD       CLOUDY    50  47  89 N17G23    29.67F
6HR MIN TEMP:  50; 6HR MAX TEMP:  53; 6HR PCP:  0.13;

$$

KSZ007>012-019>026-033>040-048>060-102>105-300100-
NORTHEAST KANSAS

CITY           SKY/WX    TMP DP  RH WIND       PRES   REMARKS
CONCORDIA      LGT RAIN  42  41  96 NE20G29   29.88S FOG
6HR MIN TEMP:  42; 6HR MAX TEMP:  43; 6HR PCP:  0.16;

EMPORIA        LGT RAIN  46  46 100 N17G25    29.72F
6HR MIN TEMP:  46; 6HR MAX TEMP:  49; 6HR PCP:  0.27;

LAWRENCE       LGT RAIN  47  46  97 NE10G28   29.78F
6HR MIN TEMP:  47; 6HR MAX TEMP:  50; 6HR PCP:  0.30;

MANHATTAN      CLOUDY    45  43  93 NE22G29   29.82F FOG
6HR MIN TEMP:  45; 6HR MAX TEMP:  48; 6HR PCP:  0.04;

MARYSVILLE     DRIZZLE   41  41 100 NE20G25   29.88S
OLATHE IND     LGT RAIN  47  46  97 NE17G26   29.76F
6HR MIN TEMP:  47; 6HR MAX TEMP:  50; 6HR PCP:  0.65;

OLATHE EXE     LGT RAIN  46  46 100 NE20G26   29.73F
6HR MIN TEMP:  47; 6HR MAX TEMP:  49; 6HR PCP:  0.62;

SALINA         LGT RAIN  46  43  89 N21G31    29.83R FOG
6HR MIN TEMP:  45; 6HR MAX TEMP:  47; 6HR PCP:  0.09;

TOPEKA BILLARD LGT RAIN  46  46 100 NE18      29.79F
6HR MIN TEMP:  46; 6HR MAX TEMP:  50; 6HR PCP:  0.16;

TOPEKA FORBES  LGT RAIN  48  46  93 NE9G20    29.78S
6HR MIN TEMP:  48; 6HR MAX TEMP:  50; 6HR PCP:  0.19;

$$



USA.gov is the U.S. government's official web portal to all federal, state and local government web resources and services.